Weather History for Pinedale, WY

Change the Weather History Date:

Friday, November 23, 2012

  Actual Average (KBPI) Record (KBPI)
Temperature  
Mean Temperature 27 °F 20 °F  
Max Temperature 42 °F 33 °F 54 °F (2005)
Min Temperature 12 °F 7 °F -17 °F (2003)
Degree Days  
Heating Degree Days 38 45  
Month to date heating degree days 905  
Since 1 July heating degree days 2485  
Cooling Degree Days 0 0  
Month to date cooling degree days 0  
Year to date cooling degree days 35  
Moisture  
Dew Point 14 °F    
Average Humidity 67    
Maximum Humidity 93    
Minimum Humidity 31    
Precipitation  
Precipitation 0.00 in 0.01 in 0.25 in (2002)
Month to date precipitation 0.17  
Year to date precipitation 6.14  
Sea Level Pressure  
Sea Level Pressure 30.43 in    
Wind  
Wind Speed 5 mph (WNW)    
Max Wind Speed 12 mph    
Max Gust Speed -    
Visibility 10 miles    
Events      
T = Trace of Precipitation, MM = Missing Value Source: NWS Daily Summary

Daily Weather History Graph

Daily Weather History Graph

Search for Another Location

Airport:

Trip Planner

Search our weather history database for the weather conditions in past years. The results will help you decide how hot, cold, wet, or windy it might be!

Date:

Astronomy

Nov. 23, 2012 Rise Set
Actual Time 7:21 AM MST 4:49 PM MST
Civil Twilight 6:50 AM MST 5:20 PM MST
Nautical Twilight 6:15 AM MST 5:55 PM MST
Astronomical Twilight 5:41 AM MST 6:29 PM MST
Moon 2:10 PM MST (11/23) 2:38 AM MST (11/23)
Length of Visible Light 10h 30m
Length of Day
9h 28m
Waxing Gibbous, 80% of the Moon is Illuminated
Nov 23
Waxing Gibbous
Nov 28
Full
Dec 6
Last Quarter
Dec 13
New
Dec 19
First Quarter

Hourly Weather History & Observations

Time (MST) Temp. Windchill Dew Point Humidity Pressure Visibility Wind Dir Wind Speed Gust Speed Precip Events Conditions
12:15 AM 19.4 °F 7.9 °F 12.2 °F 74% 30.48 in 10.0 mi WNW 10.4 mph - N/A   Scattered Clouds
12:35 AM 19.4 °F 11.5 °F 10.4 °F 68% 30.48 in 10.0 mi West 5.8 mph - N/A   Scattered Clouds
12:55 AM 17.6 °F 10.7 °F 10.4 °F 73% 30.48 in 10.0 mi NW 4.6 mph - N/A   Clear
1:15 AM 17.6 °F 8.2 °F 10.4 °F 73% 30.48 in 10.0 mi NNW 6.9 mph - N/A   Clear
1:35 AM 14.0 °F 3.9 °F 10.4 °F 86% 30.48 in 10.0 mi NW 6.9 mph - N/A   Scattered Clouds
1:55 AM 15.8 °F 4.2 °F 10.4 °F 79% 30.48 in 10.0 mi NNW 9.2 mph - N/A   Clear
2:15 AM 15.8 °F 6.1 °F 10.4 °F 79% 30.48 in 10.0 mi NW 6.9 mph - N/A   Clear
2:35 AM 15.8 °F 6.1 °F 10.4 °F 79% 30.48 in 10.0 mi NW 6.9 mph - N/A   Clear
2:55 AM 14.0 °F 6.5 °F 10.4 °F 86% 30.48 in 10.0 mi NW 4.6 mph - N/A   Scattered Clouds
3:15 AM 14.0 °F 2.9 °F 10.4 °F 86% 30.48 in 10.0 mi North 8.1 mph - N/A   Scattered Clouds
3:35 AM 14.0 °F 8.2 °F 8.6 °F 79% 30.48 in 10.0 mi NNW 3.5 mph - N/A   Mostly Cloudy
3:55 AM 14.0 °F - 8.6 °F 79% 30.48 in 10.0 mi Calm Calm - N/A   Mostly Cloudy
4:15 AM 14.0 °F 6.5 °F 8.6 °F 79% 30.48 in 10.0 mi NW 4.6 mph - N/A   Scattered Clouds
4:35 AM 14.0 °F - 8.6 °F 79% 30.48 in 10.0 mi Calm Calm - N/A   Scattered Clouds
4:55 AM 14.0 °F 8.2 °F 8.6 °F 79% 30.48 in 10.0 mi WSW 3.5 mph - N/A   Mostly Cloudy
5:15 AM 14.0 °F 8.2 °F 8.6 °F 79% 30.48 in 10.0 mi West 3.5 mph - N/A   Mostly Cloudy
5:35 AM 14.0 °F 8.2 °F 8.6 °F 79% 30.49 in 10.0 mi NNW 3.5 mph - N/A   Scattered Clouds
5:55 AM 14.0 °F 8.2 °F 8.6 °F 79% 30.49 in 10.0 mi WNW 3.5 mph - N/A   Clear
6:15 AM 12.2 °F 4.3 °F 8.6 °F 85% 30.48 in 10.0 mi West 4.6 mph - N/A   Scattered Clouds
6:35 AM 12.2 °F 4.3 °F 8.6 °F 85% 30.48 in 10.0 mi NW 4.6 mph - N/A   Clear
6:55 AM 12.2 °F 1.7 °F 8.6 °F 85% 30.49 in 10.0 mi NW 6.9 mph - N/A   Clear
7:15 AM 12.2 °F 2.9 °F 8.6 °F 85% 30.49 in 10.0 mi WNW 5.8 mph - N/A   Clear
7:35 AM 14.0 °F 2.9 °F 8.6 °F 79% 30.50 in 10.0 mi WNW 8.1 mph - N/A   Clear
7:55 AM 14.0 °F 0.5 °F 8.6 °F 79% 30.50 in 10.0 mi WNW 11.5 mph - N/A   Clear
8:15 AM 15.8 °F 10.2 °F 8.6 °F 73% 30.51 in 10.0 mi WNW 3.5 mph - N/A   Clear
8:35 AM 17.6 °F 12.3 °F 10.4 °F 73% 30.51 in 10.0 mi WNW 3.5 mph - N/A   Scattered Clouds
8:55 AM 19.4 °F 9.5 °F 10.4 °F 68% 30.51 in 10.0 mi WNW 8.1 mph - N/A   Clear
9:15 AM 23.0 °F 14.7 °F 12.2 °F 63% 30.51 in 10.0 mi NW 6.9 mph - N/A   Clear
9:35 AM 26.6 °F 19.1 °F 12.2 °F 55% 30.50 in 10.0 mi NW 6.9 mph - N/A   Clear
10:15 AM 30.2 °F 24.3 °F 15.8 °F 55% 30.50 in 10.0 mi NW 5.8 mph - N/A   Clear
10:35 AM 30.2 °F 25.4 °F 14.0 °F 51% 30.50 in 10.0 mi WNW 4.6 mph - N/A   Clear
10:55 AM 32.0 °F 26.4 °F 14.0 °F 48% 30.50 in 10.0 mi NW 5.8 mph - N/A   Clear
11:15 AM 33.8 °F 28.6 °F 15.8 °F 48% 30.48 in 10.0 mi NW 5.8 mph - N/A   Clear
11:35 AM 35.6 °F 31.7 °F 15.8 °F 44% 30.47 in 10.0 mi NW 4.6 mph - N/A   Clear
11:55 AM 35.6 °F 32.8 °F 14.0 °F 41% 30.46 in 10.0 mi NW 3.5 mph - N/A   Clear
12:15 PM 37.4 °F 33.8 °F 15.8 °F 41% 30.45 in 10.0 mi NW 4.6 mph - N/A   Clear
12:35 PM 39.2 °F 37.0 °F 14.0 °F 36% 30.44 in 10.0 mi West 3.5 mph - N/A   Clear
12:55 PM 39.2 °F 35.0 °F 14.0 °F 36% 30.43 in 10.0 mi WNW 5.8 mph - N/A   Clear
1:15 PM 41.0 °F 39.0 °F 14.0 °F 33% 30.42 in 10.0 mi WNW 3.5 mph - N/A   Clear
1:35 PM 41.0 °F 39.0 °F 14.0 °F 33% 30.42 in 10.0 mi West 3.5 mph - N/A   Clear
1:55 PM 41.0 °F - 14.0 °F 33% 30.42 in 10.0 mi Calm Calm - N/A   Clear
2:15 PM 41.0 °F - 14.0 °F 33% 30.40 in 10.0 mi Calm Calm - N/A   Clear
2:35 PM 42.8 °F - 14.0 °F 31% 30.40 in 10.0 mi Calm Calm - N/A   Scattered Clouds
2:55 PM 42.8 °F 41.1 °F 15.8 °F 34% 30.40 in 10.0 mi WNW 3.5 mph - N/A   Clear
3:15 PM 42.8 °F 40.1 °F 14.0 °F 31% 30.40 in 10.0 mi West 4.6 mph - N/A   Clear
3:35 PM 42.8 °F 40.1 °F 15.8 °F 34% 30.39 in 10.0 mi West 4.6 mph - N/A   Scattered Clouds
3:55 PM 42.8 °F 41.1 °F 15.8 °F 34% 30.39 in 10.0 mi SW 3.5 mph - N/A   Scattered Clouds
4:15 PM 41.0 °F 39.0 °F 15.8 °F 36% 30.38 in 10.0 mi SW 3.5 mph - N/A   Clear
4:35 PM 37.4 °F - 15.8 °F 41% 30.38 in 10.0 mi Calm Calm - N/A   Clear
4:55 PM 33.8 °F - 19.4 °F 56% 30.38 in 10.0 mi Calm Calm - N/A   Clear
5:15 PM 32.0 °F 27.5 °F 19.4 °F 60% 30.38 in 10.0 mi WNW 4.6 mph - N/A   Clear
5:35 PM 30.2 °F 25.4 °F 21.2 °F 69% 30.38 in 10.0 mi WNW 4.6 mph - N/A   Clear
5:55 PM 32.0 °F 27.5 °F 19.4 °F 60% 30.37 in 10.0 mi NW 4.6 mph - N/A   Clear
6:15 PM 30.2 °F - 19.4 °F 64% 30.38 in 10.0 mi Calm Calm - N/A   Clear
6:35 PM 30.2 °F - 19.4 °F 64% 30.38 in 10.0 mi Calm Calm - N/A   Clear
6:55 PM 28.4 °F - 19.4 °F 69% 30.38 in 10.0 mi Calm Calm - N/A   Clear
7:15 PM 26.6 °F - 19.4 °F 74% 30.37 in 10.0 mi Calm Calm - N/A   Clear
7:35 PM 26.6 °F - 21.2 °F 80% 30.37 in 10.0 mi Calm Calm - N/A   Clear
7:55 PM 24.8 °F - 21.2 °F 86% 30.37 in 10.0 mi Calm Calm - N/A   Clear
8:15 PM 23.0 °F 17.0 °F 19.4 °F 86% 30.37 in 10.0 mi WNW 4.6 mph - N/A   Clear
8:35 PM 23.0 °F 15.8 °F 19.4 °F 86% 30.37 in 10.0 mi West 5.8 mph - N/A   Clear
8:55 PM 23.0 °F 17.0 °F 19.4 °F 86% 30.36 in 10.0 mi WNW 4.6 mph - N/A   Clear
9:15 PM 23.0 °F 15.8 °F 19.4 °F 86% 30.36 in 10.0 mi WNW 5.8 mph - N/A   Scattered Clouds
9:35 PM 21.2 °F 13.6 °F 17.6 °F 86% 30.36 in 10.0 mi WNW 5.8 mph - N/A   Scattered Clouds
9:55 PM 21.2 °F 13.6 °F 19.4 °F 93% 30.35 in 10.0 mi NW 5.8 mph - N/A   Clear
10:15 PM 21.2 °F 13.6 °F 17.6 °F 86% 30.35 in 10.0 mi NW 5.8 mph - N/A   Scattered Clouds
10:35 PM 21.2 °F 16.4 °F 17.6 °F 86% 30.34 in 10.0 mi NW 3.5 mph - N/A   Clear
10:55 PM 19.4 °F 10.4 °F 17.6 °F 93% 30.33 in 10.0 mi West 6.9 mph - N/A   Scattered Clouds
11:15 PM 19.4 °F 10.4 °F 17.6 °F 93% 30.33 in 10.0 mi WNW 6.9 mph - N/A   Clear
11:35 PM 19.4 °F 11.5 °F 17.6 °F 93% 30.33 in 10.0 mi WNW 5.8 mph - N/A   Clear
11:55 PM 19.4 °F 11.5 °F 17.6 °F 93% 30.32 in 10.0 mi WNW 5.8 mph - N/A   Clear